Regional Weather Roundup
Issued by NWS

Home | Current Version | Previous Version | Graphics & Text | Print | Product List | Glossary On
Versions: 1 2 3 4 5 6 7 8 9 10 11 12 13 14 15 16 17 18 19 20 21 22 23 24 25 26 27 28 29 30 31 32 33 34 35 36 37 38 39 40 41 42 43 44 45 46 47 48 49 50
000
ASUS43 KLMK 240510
RWRKY
KENTUCKY REGIONAL WEATHER ROUNDUP
NATIONAL WEATHER SERVICE LOUISVILLE KY
100 AM EDT THU APR 24 2014

NOTE "FAIR" INDICATES FEW OR NO CLOUDS BELOW 12,000 FEET
WITH NO SIGNIFICANT WEATHER AND/OR OBSTRUCTIONS TO VISIBILITY.

KYZ001>023-026-027-061>063-070>075-240600-
WESTERN AND SOUTH CENTRAL KENTUCKY

CITY           SKY/WX    TMP DP  RH WIND       PRES   REMARKS
PADUCAH        CLEAR     54  38  54 E5        29.97F
HENDERSON      PTCLDY    52  37  58 E5        30.00F
OWENSBORO      PTCLDY    53  35  50 E7        30.02R
HOPKINSVILLE   CLEAR     54  34  45 E7        29.99F
BOWLING GREEN  MOCLDY    48  34  58 E6        30.02F
GLASGOW        PTCLDY    48  34  58 CALM      30.03R
$$

KYZ024-025-028>034-038-045-046-053-240600-
NORTH CENTRAL KENTUCKY

CITY           SKY/WX    TMP DP  RH WIND       PRES   REMARKS
LOUISVILLE/SDF MOCLDY    56  32  40 E8        30.04F
LOUISVILLE/LOU MOCLDY    57  32  38 NE5       30.05S
FORT KNOX      CLOUDY    53  33  46 E6        30.02S
$$

KYZ035>037-039>044-047>052-055>060-089>105-240600-
NORTHEAST KENTUCKY

CITY           SKY/WX    TMP DP  RH WIND       PRES   REMARKS
LEXINGTON      CLEAR     48  33  56 E8        30.05F
COVINGTON      CLOUDY    53  32  44 E8        30.07F
FRANKFORT      PTCLDY    45  35  68 CALM      30.04F
$$

KYZ054-064>069-076>088-106>120-240600-
SOUTHEAST KENTUCKY

CITY           SKY/WX    TMP DP  RH WIND       PRES   REMARKS
JACKSON        CLEAR     49  31  49 VRB3      30.07S
LONDON         CLEAR     50  32  50 CALM      30.05F
SOMERSET       CLEAR     45  34  65 CALM      30.06S
MIDDLESBORO    CLEAR     43  37  78 CALM      30.06S
MONTICELLO     CLEAR     43  36  76 CALM      30.06F
$$




USA.gov is the U.S. government's official web portal to all federal, state and local government web resources and services.